Location: Malvern Link
(52.1333°N, 2.3000°W)
Time: 01:27:22
(UTC+00:00)

Cosmos 1833 Rocket - Pass Details

Date: 18 September 2020
Orbit: 831 x 841 km, 71.0° (Epoch: 23 October)

Event Time Altitude Azimuth Distance (km) Brightness Sun altitude
Rises 21:41:29 0° 328° (NNW) 3,409 7.1 -28.7°
Reaches altitude 10° 21:43:57 10° 326° (NW) 2,470 6.1 -29.0°
Enters shadow 21:49:14 67° 268° (W) 915 2.8 -29.5°
